244  
ASUS41 KCLE 200200  
RWRCLE  
OHIO REGIONAL WEATHER ROUNDUP  
NATIONAL WEATHER SERVICE WILMINGTON, OH  
1000 PM EDT MON APR 19 2021  
 
NOTE: "FAIR" INDICATES FEW OR NO CLOUDS BELOW 12,000 FEET WITH NO  
SIGNIFICANT WEATHER AND/OR S TO VISIBILITY
.  
 
OHZ001>008-015>018-024>027-034-035-043-044-200300-  
NORTHWEST OHIO  
 
CITY SKY/WX TMP DP RH WIND PRES REMARKS
 
DEFIANCE CLOUDY 44 35 70 W12G22 29.93R  
FINDLAY NOT AVBL  
TOLEDO EXPRESS LGT RAIN 45 35 68 W10 29.90R  
TOLEDO EXEC NOT AVBL  
LIMA CLOUDY 46 37 71 NW13 29.92R  

 
 
OHZ009>014-019>023-028>033-038-089-200300-  
NORTHEAST OHIO  
 
CITY SKY/WX TMP DP RH WIND PRES REMARKS
 
CLE-HOPKINS CLOUDY 49 39 68 NW14G22 29.87R  
CLE-LAKEFRONT CLOUDY 50 43 77 W12 29.88R  
CUY CO. ARPT MOCLDY 48 41 76 W10 29.88R  
LORAIN-ELYRIA CLOUDY 49 41 74 NW10 29.89R  
ASHTABULA NOT AVBL  
AKRON-CANTON CLOUDY 56 40 55 W6 29.85S  
WOOSTER NOT AVBL  
MANSFIELD CLOUDY 50 40 68 NW12 29.88R  
YOUNGSTOWN LGT RAIN 55 39 54 W14 29.86R  

 
 
OHZ042-051>053-060>062-070>072-077>081-200300-  
SOUTHWEST OHIO  
 
CITY SKY/WX TMP DP RH WIND PRES REMARKS
 
CINC-COVINGTON FAIR 57 35 43 SW6 29.91R  
CINC-LUNKEN MOCLDY 54 41 61 SW6 29.92R  
HAMILTON FAIR 50 41 71 CALM 29.91R  
DAYTON NOT AVBL  
WRIGHT-PAT AFB PTCLDY 57 37 47 SW10 29.88R  
DAYTON GENERAL FAIR 60 36 40 SW9 29.89R  
WILMINGTON NOT AVBL  

 
 
OHZ036-037-039>041-045>050-054>059-063>069-073>076-082>088-200300-  
CENTRAL AND SOUTHEAST OHIO  
 
CITY SKY/WX TMP DP RH WIND PRES REMARKS
 
COLUMBUS MOCLDY 60 35 39 SW9 29.87R  
OSU AIRPORT FAIR 61 36 39 SW10 29.86R  
BOLTON FIELD FAIR 54 37 51 SW9 29.88R  
RICKENBACK AFB NOT AVBL  
NEWARK NOT AVBL  
MARION CLOUDY 50 38 63 NW16G23 29.90R  
LANCASTER FAIR 57 37 47 SW7 29.89R  
ZANESVILLE NOT AVBL  
NEW PHILLY CLOUDY 61 36 39 W5 29.86R  

 
 
 
CLICK HERE TO GO TO PREVIOUS BULLETINS.

The Nexlab OH Page
The Nexlab PA Page Main Text Page